W0KHZ Weather Reports


Display with metric or nautical units.
time (UTC)temp
F
wind
direction
speed
MPH
gust
MPH
rain 1hr
in
rain 24hr
in
rain mn
in
humidity
%
barometer
mb
20260505021022 55 321 5.0 14.0 0.00 0.00 0.00 42 1001.2
20260505020540 55 318 3.0 9.0 0.00 0.00 0.00 42 1001.1
20260505020018 55 296 2.0 4.0 0.00 0.00 0.00 41 1000.9
20260505015535 56 307 3.0 11.0 0.00 0.00 0.00 41 1000.8
20260505015052 56 326 3.0 16.0 0.00 0.00 0.00 41 1000.7
20260505014530 56 322 6.0 15.0 0.00 0.00 0.00 41 1000.6
20260505014029 57 321 5.0 16.0 0.00 0.00 0.00 40 1000.5
20260505013527 57 329 3.0 13.0 0.00 0.00 0.00 40 1000.4
20260505013024 57 320 5.0 14.0 0.00 0.00 0.00 40 1000.2
20260505012522 57 318 4.0 11.0 0.00 0.00 0.00 39 1000.2
20260505012041 58 321 3.0 6.0 0.00 0.00 0.00 39 999.9
20260505011519 58 328 3.0 7.0 0.00 0.00 0.00 38 999.9
20260505011017 58 316 5.0 11.0 0.00 0.00 0.00 39 999.8
20260505010554 58 305 4.0 13.0 0.00 0.00 0.00 39 999.6
20260505010052 58 312 4.0 13.0 0.00 0.00 0.00 39 999.5
20260505005530 59 321 4.0 9.0 0.00 0.00 0.00 38 999.5
20260505005028 59 341 4.0 10.0 0.00 0.00 0.00 38 999.4
20260505004607 59 333 3.0 10.0 0.00 0.00 0.00 38 999.2
20260505004045 59 330 4.0 9.0 0.00 0.00 0.00 37 999.4
20260505003523 60 326 4.0 14.0 0.00 0.00 0.00 37 999.4
20260505003041 60 319 4.0 13.0 0.00 0.00 0.00 36 999.5
20260505002519 60 326 3.0 7.0 0.00 0.00 0.00 36 999.4
20260505002017 60 318 4.0 13.0 0.00 0.00 0.00 36 999.3
20260505001535 61 323 3.0 9.0 0.00 0.00 0.00 36 999.4
20260505001032 61 322 3.0 7.0 0.00 0.00 0.00 35 999.3
20260505000531 61 316 5.0 17.0 0.00 0.00 0.00 35 999.2
20260505000049 61 327 4.0 14.0 0.00 0.00 0.00 34 999.2
20260504235527 61 315 5.0 11.0 0.00 0.00 0.00 35 999.2
20260504235045 61 318 4.0 13.0 0.00 0.00 0.00 35 999.1
20260504234523 62 312 4.0 7.0 0.00 0.00 0.00 35 999.0
20260504234021 62 325 4.0 13.0 0.00 0.00 0.00 34 999.0
20260504233519 62 335 4.0 13.0 0.00 0.00 0.00 34 998.7
20260504233030 63 322 3.0 10.0 0.00 0.00 0.00 33 998.8
20260504232534 63 320 5.0 10.0 0.00 0.00 0.00 34 998.8
20260504232032 63 319 4.0 14.0 0.00 0.00 0.00 33 998.8
20260504231530 64 314 8.0 22.0 0.00 0.00 0.00 31 998.7
20260504231028 64 326 5.0 17.0 0.00 0.00 0.00 31 998.8
20260504230526 64 309 3.0 9.0 0.00 0.00 0.00 31 998.5
20260504230024 64 323 5.0 15.0 0.00 0.00 0.00 30 998.6
20260504225523 64 303 5.0 16.0 0.00 0.00 0.00 30 998.4
20260504225021 64 313 4.0 14.0 0.00 0.00 0.00 30 998.3
20260504224519 64 299 5.0 14.0 0.00 0.00 0.00 30 998.2
20260504224017 65 314 3.0 15.0 0.00 0.00 0.00 30 998.1
20260504223535 65 317 3.0 11.0 0.00 0.00 0.00 29 998.0
20260504223033 65 318 5.0 19.0 0.00 0.00 0.00 30 997.9
20260504222530 65 311 5.0 21.0 0.00 0.00 0.00 30 997.8
20260504222028 65 329 5.0 17.0 0.00 0.00 0.00 30 997.7
20260504221607 65 322 4.0 11.0 0.00 0.00 0.00 31 997.9
20260504221025 65 308 4.0 16.0 0.00 0.00 0.00 30 997.7
20260504220523 65 311 4.0 10.0 0.00 0.00 0.00 30 997.7
20260504220021 65 316 4.0 14.0 0.00 0.00 0.00 31 997.6
20260504215519 66 315 4.0 13.0 0.00 0.00 0.00 31 997.5
20260504215017 66 303 2.0 8.0 0.00 0.00 0.00 31 997.6
20260504214535 66 331 3.0 13.0 0.00 0.00 0.00 30 997.5
20260504214033 66 331 5.0 15.0 0.00 0.00 0.00 30 997.6
20260504213531 66 304 4.0 16.0 0.00 0.00 0.00 32 997.3
20260504213049 66 318 4.0 11.0 0.00 0.00 0.00 32 997.4
20260504212527 66 304 2.0 8.0 0.00 0.00 0.00 31 997.4
20260504212026 66 328 4.0 11.0 0.00 0.00 0.00 31 997.4
20260504211544 66 313 4.0 8.0 0.00 0.00 0.00 32 997.4
20260504211022 66 317 4.0 9.0 0.00 0.00 0.00 32 997.3
20260504210521 66 331 4.0 13.0 0.00 0.00 0.00 32 997.4
20260504210019 66 313 4.0 16.0 0.00 0.00 0.00 31 997.4
20260504205517 67 334 5.0 19.0 0.00 0.00 0.00 31 997.4
20260504205035 67 318 4.0 10.0 0.00 0.00 0.00 30 997.5
20260504204613 68 337 6.0 16.0 0.00 0.00 0.00 30 997.6
20260504204051 68 313 5.0 14.0 0.00 0.00 0.00 29 997.4
20260504203529 68 297 6.0 17.0 0.00 0.00 0.00 28 997.4
20260504203027 69 332 6.0 15.0 0.00 0.00 0.00 28 997.4
20260504202525 69 328 6.0 15.0 0.00 0.00 0.00 28 997.3
20260504202024 70 314 6.0 15.0 0.00 0.00 0.00 28 996.9
20260504201522 70 315 5.0 18.0 0.00 0.00 0.00 28 997.0
20260504201020 71 303 6.0 16.0 0.00 0.00 0.00 29 996.9
20260504200519 71 306 6.0 17.0 0.00 0.00 0.00 29 996.7
20260504200017 71 312 3.0 15.0 0.00 0.00 0.00 32 996.4
20260504195534 71 310 5.0 17.0 0.00 0.00 0.00 32 996.6
20260504195032 71 329 5.0 16.0 0.00 0.00 0.00 31 996.4
20260504194530 72 309 4.0 11.0 0.00 0.00 0.00 32 996.4
20260504194029 72 240 4.0 15.0 0.00 0.00 0.00 32 996.4
20260504193527 72 330 4.0 8.0 0.00 0.00 0.00 32 996.3
20260504193045 72 311 4.0 14.0 0.00 0.00 0.00 31 996.3
20260504192523 72 306 4.0 14.0 0.00 0.00 0.00 31 996.3
20260504192022 72 304 3.0 13.0 0.00 0.00 0.00 31 996.1
20260504191520 72 299 6.0 18.0 0.00 0.00 0.00 30 996.2
20260504191018 72 311 4.0 15.0 0.00 0.00 0.00 32 996.1
20260504190517 72 336 5.0 16.0 0.00 0.00 0.00 32 996.2
20260504190034 72 314 5.0 16.0 0.00 0.00 0.00 33 996.1
20260504185532 72 311 3.0 9.0 0.00 0.00 0.00 33 995.9
20260504185051 73 260 4.0 13.0 0.00 0.00 0.00 33 996.0
20260504184528 73 261 4.0 11.0 0.00 0.00 0.00 33 996.0
20260504184047 73 276 3.0 14.0 0.00 0.00 0.00 32 995.8
20260504183525 74 270 5.0 13.0 0.00 0.00 0.00 33 995.8
20260504183023 74 307 4.0 13.0 0.00 0.00 0.00 35 995.7
20260504182521 74 235 4.0 11.0 0.00 0.00 0.00 37 995.6
20260504182040 74 272 3.0 11.0 0.00 0.00 0.00 37 995.8
20260504181538 74 303 3.0 9.0 0.00 0.00 0.00 39 995.6
20260504181016 74 317 6.0 14.0 0.00 0.00 0.00 38 995.7
20260504180534 74 317 5.0 18.0 0.00 0.00 0.00 39 995.6
20260504180032 74 254 3.0 9.0 0.00 0.00 0.00 40 995.5
20260504175530 74 247 5.0 15.0 0.00 0.00 0.00 40 995.5
20260504175028 74 230 2.0 9.0 0.00 0.00 0.00 39 995.6
20260504174526 74 314 4.0 10.0 0.00 0.00 0.00 39 995.7
20260504174025 74 214 4.0 10.0 0.00 0.00 0.00 40 995.7
20260504173523 74 313 4.0 10.0 0.00 0.00 0.00 39 995.8
20260504173021 74 319 4.0 23.0 0.00 0.00 0.00 39 995.7
20260504172519 74 303 3.0 10.0 0.00 0.00 0.00 40 995.6
20260504172018 74 271 4.0 9.0 0.00 0.00 0.00 41 995.7
20260504171516 74 314 5.0 15.0 0.00 0.00 0.00 39 995.6
20260504171034 74 314 5.0 16.0 0.00 0.00 0.00 40 995.7
20260504170531 74 317 4.0 14.0 0.00 0.00 0.00 39 995.7
20260504151019 71 314 3.0 9.0 0.00 0.00 0.00 41 996.0
20260504150517 71 302 5.0 17.0 0.00 0.00 0.00 41 995.9
20260504141016 64 162 1.0 4.0 0.00 0.00 0.00 53 995.7
20260504140534 63 109 2.0 6.0 0.00 0.00 0.00 53 995.9
20260504130531 55 358 2.0 3.0 0.00 0.00 0.00 64 996.7
20260504110525 38 0.0 0.0 0.00 0.00 0.00 83 997.4
20260504100523 39 253 0.0 2.0 0.00 0.00 0.00 81 998.1
20260504081523 41 0.0 0.0 0.00 0.00 0.00 79 999.8
20260504081021 41 0.0 0.0 0.00 0.00 0.00 78 999.9
20260504080519 41 0.0 0.0 0.00 0.00 0.00 78 999.8
20260504050532 47 0.0 0.0 0.00 0.00 0.00 66 1002.1
20260504045609 48 0.0 0.0 0.00 0.00 0.00 64 1002.3
20260504045027 48 0.0 0.0 0.00 0.00 0.00 64 1002.4
20260504044525 48 0.0 0.0 0.00 0.00 0.00 65 1002.4
20260504044022 48 0.0 0.0 0.00 0.00 0.00 64 1002.3
20260504043521 49 0.0 0.0 0.00 0.00 0.00 64 1002.4
20260504043019 49 0.0 0.0 0.00 0.00 0.00 63 1002.5
20260504042517 49 0.0 0.0 0.00 0.00 0.00 63 1002.4
20260504042035 50 0.0 0.0 0.00 0.00 0.00 62 1002.5
20260504041532 50 0.0 0.0 0.00 0.00 0.00 61 1002.5
20260504041030 50 0.0 0.0 0.00 0.00 0.00 62 1002.5
20260504040528 49 0.0 0.0 0.00 0.00 0.00 64 1002.7
20260504040026 50 0.0 0.0 0.00 0.00 0.00 63 1002.6
20260504035525 50 0.0 0.0 0.00 0.00 0.00 61 1002.6
20260504035023 51 0.0 0.0 0.00 0.00 0.00 60 1002.7
20260504034521 51 0.0 0.0 0.00 0.00 0.00 60 1002.8
20260504034040 51 0.0 0.0 0.00 0.00 0.00 60 1002.8
20260504033537 51 0.0 0.0 0.00 0.00 0.00 60 1002.8
20260504033016 52 0.0 0.0 0.00 0.00 0.00 59 1002.9
20260504032553 52 0.0 0.0 0.00 0.00 0.00 59 1002.9
20260504032031 52 0.0 0.0 0.00 0.00 0.00 57 1003.1
20260504031529 52 0.0 0.0 0.00 0.00 0.00 57 1003.1
20260504031027 52 0.0 0.0 0.00 0.00 0.00 59 1003.1
20260504030545 52 0.0 0.0 0.00 0.00 0.00 60 1002.9
20260504030023 52 0.0 0.0 0.00 0.00 0.00 61 1003.0
20260504025522 52 0.0 0.0 0.00 0.00 0.00 62 1003.1
20260504025040 53 0.0 0.0 0.00 0.00 0.00 59 1003.1
20260504024518 54 0.0 0.0 0.00 0.00 0.00 57 1003.0
20260504024036 54 0.0 0.0 0.00 0.00 0.00 55 1002.9
20260504023533 54 0.0 0.0 0.00 0.00 0.00 55 1002.9
20260504023030 55 0.0 0.0 0.00 0.00 0.00 55 1002.9
20260504022528 55 0.0 0.0 0.00 0.00 0.00 54 1002.9
20260504022026 55 0.0 0.0 0.00 0.00 0.00 53 1002.8
20260504021544 56 0.0 0.0 0.00 0.00 0.00 50 1002.7